Location: Friaudour
(46.0460°N, 1.2873°E)
Time: 15:37:31
(UTC+00:00)

Spot 4 Rocket - Pass Details

Date: 25 October 2020
Orbit: 776 x 781 km, 98.7° (Epoch: 29 November)

Event Time Altitude Azimuth Distance (km) Brightness Sun altitude
Rises 03:02:01 0° 16° (NNE) 3,269 7.7 -35.6°
Reaches altitude 10° 03:04:22 10° 19° (NNE) 2,337 6.9 -35.2°
Enters shadow 03:06:38 27° 26° (NNE) 1,481 5.8 -34.8°
